Regional Weather Roundup
Issued by NWS Upton, NY

Current Version | Previous Version | Graphics & Text | Print | Product List | Glossary Off
Versions: 1 2 3 4 5 6 7 8 9 10 11 12 13 14 15 16 17 18 19 20 21 22 23 24 25 26 27 28 29 30 31 32 33 34 35 36 37 38 39 40 41 42 43 44 45 46 47 48 49 50

000
ASUS41 KOKX 221708
RWROKX

REGIONAL WEATHER ROUNDUP
NATIONAL WEATHER SERVICE NEW YORK NY
1200 PM EST SUN JAN 22 2017

NOTE: "FAIR" INDICATES FEW OR NO CLOUDS BELOW 12,000 FEET WITH NO
SIGNIFICANT WEATHER AND/OR OBSTRUCTIONS TO VISIBILITY.

NYZ071-072-176-178-NJZ106-104-221800-
NEW YORK CITY METRO AREA

CITY           SKY/WX    TMP DP  RH WIND       PRES   REMARKS
Central Park   CLOUDY    45  43  93 VRB6      29.75F FOG
Wall St Helipt CLOUDY    45  42  89 NE13      29.73F
LaGuardia APRT FOG       43  41  93 NE12      29.73F VSB 1/2
Kennedy INTL   CLOUDY    51  49  92 NE6       29.73F FOG
Breezy Point     N/A     43 N/A N/A E6          N/A
Newark/Liberty FOG       48  46  93 NE7       29.72F VSB 1
Teterboro      FOG       48  45  89 E5        29.72F VSB 1
$$

NYZ177-179-078>081-221800-
LONG ISLAND NEW YORK

CITY           SKY/WX    TMP DP  RH WIND       PRES   REMARKS
Jones Beach      N/A     43 N/A N/A E9          N/A
Matinecock PT    N/A     41 N/A N/A E12         N/A
Farmingdale    CLOUDY    49  45  86 N5        29.73F
MacArthur/ISP  CLOUDY    51  46  83 NE5       29.72F
Shirley        CLOUDY    52  47  83 VRB5      29.73F
Westhampton    CLOUDY    50  44  80 VRB6      29.75F
Southampton    NOT AVBL
Bridgehampton  NOT AVBL
East Hampton   PTSUNNY   48  43  83 E7        29.74F
Montauk          N/A     43  43 100 NE6       29.76F
$$

NYZ052-065-067-221800-
HUDSON VALLEY

CITY           SKY/WX    TMP DP  RH WIND       PRES   REMARKS
White Plains   FOG       45  43  93 E8        29.73F VSB 3/4
Newburgh       CLOUDY    46  46 100 E8        29.75S
Montgomery     CLOUDY    47  43  86 N3        29.72F FOG
Poughkeepsie   CLOUDY    44  42  93 N6        29.74F
Albany         CLOUDY    42  39  89 N5        29.79R FOG
$$

NJZ001-105-106-008-010-013-015-019>022-104-221800-
NEW JERSEY

CITY           SKY/WX    TMP DP  RH WIND       PRES   REMARKS
Newark/Liberty FOG       48  46  93 NE7       29.72F VSB 1
Teterboro      FOG       48  45  89 E5        29.72F VSB 1
Caldwell       CLOUDY    46  44  93 NE5       29.72F FOG
Somerville     CLOUDY    48  45  89 CALM      29.70F FOG
Linden         CLOUDY    47  47  98 CALM      29.73F FOG
Sussex         CLOUDY    46  44  93 NE3       29.71F
Andover          N/A     45  44  97 CALM      29.71F
Trenton        CLOUDY    47  46  97 NE6       29.71F FOG
Millville      CLOUDY    49  49 100 N7        29.67F FOG
Atlantic City  FOG       50  47  89 NE9       29.67F VSB 1
Wrightstown    CLOUDY    46  46 100 N8        29.69F FOG
Toms River     LGT RAIN  47  46  97 NE7       29.71F FOG
Belmar         CLOUDY    46  44  93 NE8       29.71F
$$

PAZ047>061-062-071-221800-
EASTERN PENNSYLVANIA

CITY           SKY/WX    TMP DP  RH WIND       PRES   REMARKS
Philadelphia   CLOUDY    49  47  93 N8        29.69F FOG
Allentown      FOG       45  43  93 CALM      29.72F VSB 1/2
Scranton       FOG       44  44 100 CALM      29.69F VSB 1/4
$$

CTZ002-004>006-009-010-012-RIZ004-006-007-MAZ004-011-015-221800-
SOUTHERN NEW ENGLAND
 IN CT

CITY           SKY/WX    TMP DP  RH WIND       PRES   REMARKS
Bradley INTL   CLOUDY    46  42  86 N9        29.78F
Hartford       CLOUDY    49  43  80 N12       29.77F HAZE
Danbury        CLOUDY    54  45  71 E5        29.74F
Wtrbury/Oxford PTSUNNY   52  43  71 NE6       29.76S
Bridgeport     CLOUDY    45  42  89 NE8       29.75F FOG
Meriden        SUNNY     54  43  66 N5        29.75F
New Haven      PTSUNNY   44  42  93 S6        29.75F FOG
Chester          N/A     54  45  71 VRB6      29.74F
Groton         SUNNY     50  44  80 E5        29.74F
Wilimantic     CLOUDY    53  42  66 E6        29.77F

 IN RI

CITY           SKY/WX    TMP DP  RH WIND       PRES   REMARKS
Providence     CLOUDY    49  41  74 NE9       29.78F
Block Island   NOT AVBL
Westerly       SUNNY     54  42  64 E10       29.76F
 IN MA

CITY           SKY/WX    TMP DP  RH WIND       PRES   REMARKS
Boston         CLOUDY    47  42  83 NE14      29.81F
Worcester      CLOUDY    42  37  82 NE6       29.78S
Westfield      CLOUDY    43  40  89 N8        29.79F
Provincetown   PTSUNNY   46  43  87 NE8       29.80S
Nantucket      PTSUNNY   46  42  86 SE6       29.76F
$$

ANZ330-335-338-340-345-350-353-355-221800-
COASTAL MARINE OBSERVATIONS


STATION/POSITION TIME  SKY/WX   TEMP    WIND        PRES    VSBY  WAVE
                                AIR SEA DIR/SP/G                  HT/PER
                 (UTC)          (F)     (DEG/KT/KT) (MB)    (MI)  (FT/S)
NY HARB ENTRANCE 1550            42 44   50/ 10/ 12 1007.1          3/13
20 S FIRE ISLAND 1650            46 45   50/  8/ 10 1005.9          3/14
GREAT SOUTH BAY  NOT AVBL
23 SSW MONTAUK P 1550            46 47  100/ 12/ 14 1007.6          3/13
15 E BARNEGAT LI 1630               47                N/A           4/13
HUDSON CANYON    1550            54 52              1005.0          6/13
KINGS POINT      1642            42 40              1007.0
EXECUTION ROCKS  1645            41      50/ 10/ 14   N/A
CENTRAL LI SOUND 1615            40      70/  8/ 10   N/A           0
EASTERN LI SOUND NOT AVBL
ROBBINS REEF     1648            44      50/  9/ 11 1006.8
$$


>>>>>>>>>>>>>>>>>>>>>>>>>>>> KEY <<<<<<<<<<<<<<<<<<<<<<<<<<<
>                                                          <
>     SKY/WX - Sky Condition/Present Weather               <
>     TMP    - Temperature in Fahrenheit                   <
>     DP     - Dew Point in Fahrenheit                     <
>     RH     - Relative Humidity in Percent                <
>     WIND   - Direction (from) and Speed in MPH           <
>     PRES   - Mean Sea Level Pressure (inches of Hg)      <
>     WCI    - Wind Chill Index                            <
>     VSB    - VISIBILITY IN MILES                         <
>     HX     - HEAT INDEX                                  <
>     TC     - TEMPERATURE IN CELSIUS                      <
>     VRB    - VARIABLE WIND DIRECTION                     <
>                                                          <
>>>>>>>>>>>>>>>>>>>>>>>>>>>> KEY <<<<<<<<<<<<<<<<<<<<<<<<<<<



USA.gov is the U.S. government's official web portal to all federal, state and local government web resources and services.